FW6260 Weather Reports


time (UTC)temp
C
wind
direction
speed
KPH
gust
KPH
rain 1hr
cm
rain 24hr
cm
rain mn
cm
humidity
%
barometer
mb
20260507050135 8 141 0.0 1.6 0.00 0.76 0.00 93
20260507043045 8 175 1.6 6.4 0.00 0.76 0.00 93
20260507040136 8 141 1.6 6.4 0.00 0.76 0.00 94
20260507033046 8 152 1.6 9.7 0.00 0.76 0.00 93
20260507030116 8 169 1.6 6.4 0.00 0.76 0.00 92
20260507023046 9 154 1.6 9.7 0.00 0.76 0.00 92
20260507020116 10 146 1.6 6.4 0.00 0.76 0.00 93
20260507013046 10 181 1.6 6.4 0.00 0.76 0.00 92
20260507010015 10 134 0.0 6.4 0.00 0.76 0.00 94
20260507003047 10 154 0.0 4.8 0.00 0.76 0.00 94
20260507000017 10 156 0.0 6.4 0.00 0.76 0.00 94
20260506233049 10 158 1.6 4.8 0.00 0.76 0.00 94
20260506230039 10 169 1.6 6.4 0.00 0.76 0.00 95
20260506223109 11 166 0.0 4.8 0.00 0.76 0.00 96
20260506220018 11 142 0.0 1.6 0.08 0.76 0.00 96
20260506213049 11 156 1.6 6.4 0.08 0.76 0.76 97
20260506210019 11 0.0 0.0 0.00 0.69 0.69 97
20260506203052 11 152 0.0 1.6 0.00 0.69 0.69 96
20260506200020 11 132 0.0 1.6 0.00 0.69 0.69 95
20260506193050 11 193 1.6 9.7 0.23 0.69 0.69 94
20260506190020 12 223 3.2 12.9 0.69 0.69 0.69 95
20260506183111 12 188 1.6 20.9 0.46 0.46 0.46 89
20260506180021 15 244 4.8 11.3 0.00 0.00 0.00 73
20260506173052 16 230 3.2 11.3 0.00 0.00 0.00 68
20260506170021 17 177 1.6 9.7 0.00 0.00 0.00 68
20260506163054 17 111 3.2 6.4 0.00 0.00 0.00 68
20260506160023 18 287 4.8 12.9 0.00 0.00 0.00 62
20260506153134 19 154 1.6 4.8 0.00 0.00 0.00 53
20260506150024 19 146 1.6 4.8 0.00 0.00 0.00 53
20260506143055 20 194 1.6 6.4 0.00 0.00 0.00 52
20260506140025 20 140 1.6 9.7 0.00 0.00 0.00 52
20260506133056 20 127 1.6 9.7 0.00 0.00 0.00 55
20260506130046 18 109 1.6 4.8 0.00 0.00 0.00 58
20260506123057 18 124 1.6 11.3 0.00 0.00 0.00 58
20260506120026 18 105 1.6 6.4 0.00 0.00 0.00 61
20260506113058 17 118 1.6 9.7 0.00 0.00 0.00 61
20260506110028 17 120 1.6 9.7 0.00 0.00 0.00 62
20260506103101 18 126 1.6 6.4 0.00 0.00 0.00 61
20260506100029 18 132 1.6 6.4 0.00 0.00 0.00 63
20260506093120 17 122 1.6 6.4 0.00 0.00 0.00 67
20260506090029 17 117 1.6 4.8 0.00 0.00 0.00 70
20260506083101 15 143 1.6 4.8 0.00 0.00 0.00 73
20260506073104 15 116 1.6 6.4 0.00 0.00 0.00 79